Le nostre stazioni meteo in Italia

Pubblicità
Il mio iltempo24.it
Uccle, Belgio (6447): Temperatura & dewpoint: 12.01.2020 10:00:00 - 18.01.2020 10:00:00 (CET)Uccle, Belgio (6447): velocità del vento & gusts: 12.01.2020 10:00:00 - 18.01.2020 10:00:00 (CET)Uccle, Belgio (6447): direzione del vento: 12.01.2020 10:00:00 - 18.01.2020 10:00:00 (CET)Uccle, Belgio (6447): reduced air pressure: 12.01.2020 10:00:00 - 18.01.2020 10:00:00 (CET)Uccle, Belgio (6447): ore di luce: 12.01.2020 10:00:00 - 18.01.2020 10:00:00 (CET)Uccle, Belgio (6447): precipitazioni: 12.01.2020 10:00:00 - 18.01.2020 10:00:00 (CET)
Data & Tempo tt [°C] td [°C] ff [km/h] ff [kn] fx [km/h] fx [kn] dd ppp [hPa] sd [min] rr [mm]
18.01.2020 10:00:00 3,4 1,9 10 5 23 12 OSO 1025,0 12 0,0
18.01.2020 09:00:00 3,3 1,8 10 5 25 13 SO 1024,2 0 0,0
18.01.2020 08:00:00 3,5 1,8 14 8 34 18 SO 1023,3 0 0,0
18.01.2020 07:00:00 3,9 2,1 14 8 34 19 SO 1022,7 0 0,0
18.01.2020 06:00:00 4,0 2,2 15 8 31 17 SO 1022,4 0 0,0
18.01.2020 05:00:00 3,9 1,9 17 9 36 19 SO 1022,0 0 0,0
18.01.2020 04:00:00 3,8 1,5 18 10 34 19 SO 1021,9 0 0,0
18.01.2020 03:00:00 3,9 1,5 17 9 37 20 SO 1021,8 0 0,0
18.01.2020 02:00:00 4,3 1,6 22 12 39 21 SO 1021,6 0 0,0
18.01.2020 01:00:00 4,5 1,7 22 12 38 21 SO 1021,2 0 0,0
18.01.2020 00:00:00 4,9 2,2 16 9 34 18 SO 1020,8 0 0,0
17.01.2020 23:00:00 5,4 2,8 16 8 34 18 SSO 1020,4 0 0,0
17.01.2020 22:00:00 5,1 2,5 13 7 25 14 SO 1019,9 0 0,0
17.01.2020 21:00:00 6,0 2,7 10 6 30 16 SO 1019,2 0 0,0
17.01.2020 20:00:00 6,8 2,9 16 9 32 18 SO 1018,7 0 0,0
17.01.2020 19:00:00 7,0 2,7 14 8 49 26 SO 1017,7 0 0,0
17.01.2020 18:00:00 7,9 3,7 14 7 36 20 SO 1016,7 0 0,0
17.01.2020 17:00:00 9,2 4,6 17 9 44 24 OSO 1015,3 11 0,0
17.01.2020 16:00:00 9,9 4,9 16 9 48 26 SO 1014,5 27 0,0
17.01.2020 15:00:00 9,9 6,9 9 5 34 19 OSO 1013,9 0 0,0
17.01.2020 14:00:00 9,8 7,4 17 9 42 23 SO 1013,9 0 0,0
17.01.2020 13:00:00 9,1 7,5 14 8 35 19 SSO 1013,9 0 0,0
17.01.2020 12:00:00 8,7 7,3 19 10 42 23 SSO 1014,0 0 0,1
17.01.2020 11:00:00 8,3 7,2 20 11 36 19 S 1014,0 0 0,1
17.01.2020 10:00:00 8,5 6,9 21 11 45 24 S 1013,8 0 0,2
17.01.2020 09:00:00 8,9 6,4 22 12 48 26 S 1014,0 0 0,2
17.01.2020 08:00:00 10,2 5,5 23 12 45 25 S 1013,8 0 0,0
17.01.2020 07:00:00 10,1 5,3 25 14 45 24 S 1013,7 0 0,0
17.01.2020 06:00:00 9,5 5,2 21 12 41 22 S 1013,6 0 0,0
17.01.2020 05:00:00 9,8 5,3 24 13 41 22 S 1013,7 0 0,0
17.01.2020 04:00:00 9,7 5,3 23 13 39 21 SSE 1014,4 0 0,0
17.01.2020 03:00:00 9,6 5,2 22 12 42 23 S 1015,3 0 0,0
17.01.2020 02:00:00 9,5 4,9 23 12 42 23 SSE 1015,8 0 0,0
17.01.2020 01:00:00 9,6 4,9 29 16 47 25 SSE 1016,2 0 0,0
17.01.2020 00:00:00 9,8 5,0 30 16 50 27 S 1016,4 0 0,0
16.01.2020 23:00:00 10,2 5,3 27 15 50 27 SSE 1016,5 0 0,0
16.01.2020 22:00:00 10,0 5,9 21 12 33 18 S 1017,3 0 0,0
16.01.2020 21:00:00 9,8 6,0 22 12 32 18 SSE 1018,0 0 0,0
16.01.2020 20:00:00 10,0 6,3 23 13 42 23 SSE 1018,5 0 0,0
16.01.2020 19:00:00 10,4 6,7 25 14 42 23 SSE 1019,0 0 0,0
16.01.2020 18:00:00 10,5 6,9 24 13 34 18 SSE 1019,6 0 0,0
16.01.2020 17:00:00 10,8 7,3 18 10 32 17 SSE 1019,9 39 0,0
16.01.2020 16:00:00 11,4 7,6 21 11 31 17 SSE 1020,3 60 0,0
16.01.2020 15:00:00 10,8 7,2 18 10 35 19 SSE 1020,8 38 0,0
16.01.2020 14:00:00 11,2 7,4 19 10 38 21 S 1021,6 57 0,0
16.01.2020 13:00:00 10,0 6,8 18 10 39 21 S 1022,9 47 0,0
16.01.2020 12:00:00 8,6 6,5 23 12 39 21 SSE 1023,7 48 0,0
16.01.2020 11:00:00 5,9 4,7 29 15 42 23 SSE 1024,2 39 0,0
16.01.2020 10:00:00 5,1 4,3 22 12 31 17 SSE 1024,1 41 0,0
16.01.2020 09:00:00 4,2 3,4 17 9 26 14 SSE 1024,5 0 0,0
16.01.2020 08:00:00 4,0 3,3 15 8 20 11 SSE 1024,8 0 0,0
16.01.2020 07:00:00 4,1 3,4 14 8 21 11 SSE 1024,7 0 0,0
16.01.2020 06:00:00 4,1 3,5 16 8 23 12 SSE 1024,6 0 0,0
16.01.2020 05:00:00 4,0 3,3 10 6 16 9 S 1024,4 0 0,0
16.01.2020 04:00:00 4,5 3,7 11 6 17 9 S 1024,1 0 0,0
16.01.2020 03:00:00 4,4 3,7 10 5 16 9 S 1023,9 0 0,0
16.01.2020 02:00:00 4,7 3,9 9 5 14 8 S 1023,6 0 0,0
16.01.2020 01:00:00 5,3 4,2 7 4 19 10 SSO 1023,0 0 0,0
16.01.2020 00:00:00 5,4 4,2 10 5 20 11 SO 1022,3 0 0,0
15.01.2020 23:00:00 5,8 4,4 11 6 19 11 SO 1021,2 0 0,0
15.01.2020 22:00:00 6,1 4,5 7 4 20 11 SO 1020,2 0 0,0
15.01.2020 21:00:00 6,4 4,6 9 5 18 10 SO 1019,3 0 0,0
15.01.2020 20:00:00 7,3 5,2 10 6 22 12 OSO 1018,3 0 0,0
15.01.2020 19:00:00 8,2 6,3 11 6 35 19 OSO 1016,7 0 0,0
15.01.2020 18:00:00 9,7 7,5 19 10 41 22 SO 1014,7 0 0,1
15.01.2020 17:00:00 9,5 7,2 24 13 47 25 SO 1013,0 0 0,8
15.01.2020 16:00:00 10,2 6,7 26 14 51 28 SSO 1011,1 0 0,4
15.01.2020 15:00:00 10,5 6,4 26 14 54 29 SSO 1010,3 0 0,3
15.01.2020 14:00:00 11,4 5,1 27 14 63 34 SSO 1009,8 0 0,0
15.01.2020 13:00:00 11,4 4,8 29 16 59 32 S 1009,0 8 0,0
15.01.2020 12:00:00 11,3 4,9 29 16 70 38 S 1009,0 23 0,0
15.01.2020 11:00:00 10,7 4,5 29 16 72 39 S 1008,8 2 0,0
15.01.2020 10:00:00 10,1 4,2 34 19 61 33 S 1008,7 0 0,0
15.01.2020 09:00:00 9,9 4,2 34 18 63 34 S 1008,4 0 0,0
15.01.2020 08:00:00 10,1 4,4 27 14 61 33 S 1008,3 0 0,0
15.01.2020 07:00:00 10,2 4,8 32 18 61 33 S 1007,8 0 0,0
15.01.2020 06:00:00 10,6 5,0 32 17 57 31 S 1007,8 0 0,0
15.01.2020 05:00:00 10,8 5,2 33 18 69 38 S 1007,6 0 0,0
15.01.2020 04:00:00 10,9 5,6 32 18 67 36 S 1007,8 0 0,0
15.01.2020 03:00:00 10,7 6,6 29 16 61 33 SSO 1007,7 0 0,0
15.01.2020 02:00:00 10,8 7,2 32 17 64 35 SSO 1007,7 0 0,0
15.01.2020 01:00:00 10,8 7,6 32 18 67 36 SSO 1007,5 0 0,0
15.01.2020 00:00:00 10,5 8,1 29 15 61 33 SSO 1007,6 0 0,2
14.01.2020 23:00:00 11,1 7,5 33 18 69 37 SSO 1007,0 0 0,0
14.01.2020 22:00:00 11,0 7,8 36 19 68 37 SSO 1006,5 0 0,2
14.01.2020 21:00:00 10,7 7,8 33 18 74 40 SSO 1006,3 0 0,0
14.01.2020 20:00:00 11,2 7,7 32 17 74 40 SSO 1006,1 0 0,0
14.01.2020 19:00:00 11,2 8,2 36 19 65 35 SSO 1005,8 0 0,0
14.01.2020 18:00:00 11,2 8,2 33 18 68 37 SSO 1005,5 0 0,0
14.01.2020 17:00:00 10,7 7,7 36 19 69 38 SSO 1005,0 0 0,0
14.01.2020 16:00:00 10,6 6,7 37 20 63 34 SSO 1004,8 0 0,0
14.01.2020 15:00:00 10,7 6,5 32 17 67 36 SSO 1004,7 0 0,0
14.01.2020 14:00:00 10,5 6,9 35 19 59 32 SSO 1004,8 0 0,0
14.01.2020 13:00:00 10,3 6,9 32 18 63 34 SSO 1005,4 0 0,0
14.01.2020 12:00:00 9,3 6,9 28 15 55 30 SSO 1005,8 0 0,0
14.01.2020 11:00:00 10,2 6,7 27 15 60 33 SSO 1005,7 0 0,0
14.01.2020 10:00:00 10,3 6,2 24 13 63 34 SSO 1005,3 0 0,0
14.01.2020 09:00:00 10,2 6,2 27 15 67 36 SSO 1004,6 0 0,0
14.01.2020 08:00:00 10,2 6,2 31 17 65 35 SSO 1004,1 0 0,0
14.01.2020 07:00:00 9,7 6,5 32 18 70 38 SSO 1003,2 0 0,0
14.01.2020 06:00:00 9,1 6,8 32 17 61 33 SSO 1003,4 0 0,2
14.01.2020 05:00:00 8,6 7,0 31 17 63 34 S 1003,2 0 1,2
14.01.2020 04:00:00 9,1 7,0 34 18 62 33 S 1004,0 0 0,7
14.01.2020 03:00:00 9,8 7,3 30 16 68 37 S 1004,3 0 0,2
14.01.2020 02:00:00 10,2 7,2 26 14 66 35 S 1004,5 0 0,0
14.01.2020 01:00:00 10,2 7,2 36 19 69 37 S 1005,4 0 0,0
14.01.2020 00:00:00 10,2 7,3 30 16 56 30 S 1006,1 0 0,0
13.01.2020 23:00:00 9,9 7,4 30 16 57 31 S 1006,3 0 0,0
13.01.2020 22:00:00 9,7 7,4 34 18 62 33 S 1007,0 0 0,0
13.01.2020 21:00:00 9,1 7,4 28 15 52 28 S 1008,0 0 0,0
13.01.2020 20:00:00 8,2 7,4 25 13 51 27 S 1009,2 0 0,2
13.01.2020 19:00:00 8,3 7,0 25 14 55 30 S 1009,7 0 0,2
13.01.2020 18:00:00 8,5 6,8 28 15 49 26 S 1010,9 0 0,0
13.01.2020 17:00:00 7,8 6,4 24 13 41 22 S 1011,7 0 0,1
13.01.2020 16:00:00 7,9 6,1 19 10 35 19 S 1012,8 0 0,1
13.01.2020 15:00:00 8,3 5,2 16 9 38 20 S 1013,5 1 0,0
13.01.2020 14:00:00 - - - - - - - - - -
13.01.2020 13:00:00 8,4 4,8 18 10 37 20 SSO 1016,0 15 0,0
13.01.2020 12:00:00 7,9 5,4 21 12 36 20 SSO 1017,8 0 0,0
13.01.2020 11:00:00 7,9 6,2 12 7 24 13 S 1018,5 12 0,0
13.01.2020 10:00:00 6,8 5,5 10 5 20 11 S 1019,0 0 0,0
13.01.2020 09:00:00 6,4 5,1 9 5 21 11 SSO 1019,2 0 0,0
13.01.2020 08:00:00 6,1 4,5 11 6 29 16 SSO 1019,4 0 0,0
13.01.2020 07:00:00 6,4 5,1 14 8 23 13 SSO 1020,2 0 0,0
13.01.2020 06:00:00 6,2 4,8 11 6 28 15 SSO 1020,2 0 0,0
13.01.2020 05:00:00 6,6 5,2 14 8 31 17 SSO 1020,8 0 0,0
13.01.2020 04:00:00 6,7 5,5 14 8 27 15 SSO 1021,8 0 0,0
13.01.2020 03:00:00 6,9 5,6 15 8 30 16 SSO 1022,2 0 0,0
13.01.2020 02:00:00 7,0 5,8 14 7 30 16 SSO 1022,4 0 0,0
13.01.2020 01:00:00 7,2 5,8 18 10 30 16 SSO 1022,8 0 0,0
13.01.2020 00:00:00 7,2 5,5 16 8 28 15 SSO 1022,9 0 0,0
12.01.2020 23:00:00 7,3 5,6 18 10 30 16 SO 1022,8 0 0,0
12.01.2020 22:00:00 7,6 5,7 17 9 31 17 SO 1022,6 0 0,0
12.01.2020 21:00:00 7,9 6,3 16 9 37 20 SO 1022,5 0 0,0
12.01.2020 20:00:00 8,5 6,5 16 8 29 16 SO 1022,2 0 0,0
12.01.2020 19:00:00 9,0 6,7 18 10 39 21 SO 1021,8 0 0,0
12.01.2020 18:00:00 9,0 6,6 24 13 43 23 SO 1021,5 0 0,0
12.01.2020 17:00:00 9,0 6,5 23 12 44 24 SO 1020,8 20 0,0
12.01.2020 16:00:00 9,0 6,6 24 13 51 28 SSO 1020,2 5 0,0
12.01.2020 15:00:00 8,5 6,6 24 13 44 24 SO 1020,3 0 0,0
12.01.2020 14:00:00 7,2 6,0 24 13 48 26 SO 1020,6 0 0,0
12.01.2020 13:00:00 6,3 5,3 25 14 48 26 SSO 1020,9 0 0,2
12.01.2020 12:00:00 6,0 4,7 22 12 47 26 SSO 1021,1 0 0,2
12.01.2020 11:00:00 6,1 3,1 22 12 49 26 SSO 1021,2 0 0,0
12.01.2020 10:00:00 5,8 2,8 26 14 52 28 SSO 1020,9 4 0,0

tt = Temperatura
td = dewpoint
ff = velocità del vento
fx = gusts
dd = direzione del vento
ppp = reduced air pressure
sd = ore di luce
rr = precipitazioni

Stazioni seguenti

WeatherPro
AMSI
MeteoEarth